When you browse on this site, cookies collect data to enhance your experience and personalize the content and advertising you see.
Visit our Privacy Policy to learn more. By continuing to use the site, you agree to this use of cookies and data.
  • In Austria
  • List of Countries
  • For 7 days
  • Water Temperature
  • Weather Map
  • News
  • Weather Widgets
  • user-avatar
    Login

    Hourly Weather Lugi

    Today, 18 September, Wednesday

    Time Temperature Precipitation Wind Pressure Humidity
    00:00 +7°C° 0.9 mm 4 mps 738 mmHg 88%
    01:00 +7°C° 0.9 mm 4 mps 738 mmHg 90%
    02:00 +6°C° 0 mm 4 mps 737 mmHg 93%
    03:00 +6°C° 1.8 mm 4 mps 737 mmHg 92%
    04:00 +6°C° 1.8 mm 5 mps 737 mmHg 92%
    05:00 +5°C° 1.8 mm 5 mps 737 mmHg 91%
    06:00 +4°C° 0.3 mm 6 mps 737 mmHg 91%
    07:00 +4°C° 0.3 mm 6 mps 738 mmHg 90%
    08:00 +4°C° 0.3 mm 6 mps 738 mmHg 89%
    09:00 +5°C° 0.1 mm 6 mps 739 mmHg 86%
    10:00 +7°C° 0.1 mm 6 mps 739 mmHg 83%
    11:00 +8°C° 0.1 mm 5 mps 740 mmHg 80%
    12:00 +8°C° 0.1 mm 6 mps 740 mmHg 78%
    13:00 +8°C° 0.1 mm 6 mps 741 mmHg 76%
    14:00 +8°C° 0.1 mm 6 mps 741 mmHg 75%
    15:00 +9°C° 0.2 mm 6 mps 742 mmHg 74%
    16:00 +9°C° 0.2 mm 5 mps 742 mmHg 73%
    17:00 +10°C° 0.2 mm 5 mps 743 mmHg 72%
    18:00 +9°C° 0 mm 5 mps 743 mmHg 76%
    19:00 +8°C° 0 mm 5 mps 744 mmHg 81%
    20:00 +7°C° 0 mm 4 mps 744 mmHg 85%
    21:00 +7°C° 0.1 mm 5 mps 745 mmHg 86%
    22:00 +7°C° 0.1 mm 5 mps 745 mmHg 86%
    23:00 +7°C° 0.1 mm 5 mps 746 mmHg 87%

    Tomorrow, 19 September, Thursday

    Time Temperature Precipitation Wind Pressure Humidity
    00:00 +7°C° 0 mm 5 mps 746 mmHg 89%
    01:00 +6°C° 0 mm 4 mps 746 mmHg 91%
    02:00 +6°C° 0 mm 4 mps 746 mmHg 93%
    03:00 +6°C° 0 mm 4 mps 747 mmHg 92%
    04:00 +7°C° 0 mm 5 mps 747 mmHg 91%
    05:00 +7°C° 0 mm 5 mps 747 mmHg 89%
    06:00 +7°C° 0 mm 5 mps 748 mmHg 88%
    07:00 +7°C° 0 mm 5 mps 748 mmHg 86%
    08:00 +7°C° 0 mm 5 mps 748 mmHg 85%
    09:00 +7°C° 0 mm 4 mps 749 mmHg 84%
    10:00 +8°C° 0 mm 4 mps 749 mmHg 82%
    11:00 +8°C° 0 mm 4 mps 750 mmHg 81%
    12:00 +10°C° 0 mm 4 mps 750 mmHg 77%
    13:00 +10°C° 0 mm 4 mps 750 mmHg 73%
    14:00 +11°C° 0 mm 4 mps 750 mmHg 68%
    15:00 +11°C° 0 mm 3 mps 750 mmHg 68%
    16:00 +11°C° 0 mm 3 mps 750 mmHg 68%
    17:00 +12°C° 0 mm 2 mps 750 mmHg 67%
    18:00 +10°C° 0.1 mm 2 mps 750 mmHg 74%
    19:00 +9°C° 0.1 mm 2 mps 750 mmHg 81%
    20:00 +8°C° 0.1 mm 2 mps 750 mmHg 88%
    21:00 +7°C° 0 mm 2 mps 750 mmHg 89%
    22:00 +7°C° 0 mm 3 mps 750 mmHg 90%
    23:00 +7°C° 0 mm 3 mps 750 mmHg 91%

    Day after tomorrow, 20 September, Friday

    Time Temperature Precipitation Wind Pressure Humidity
    00:00 +7°C° 0 mm 3 mps 750 mmHg 92%
    01:00 +5°C° 0 mm 3 mps 750 mmHg 93%
    02:00 +5°C° 0 mm 3 mps 750 mmHg 95%
    03:00 +5°C° 0.1 mm 4 mps 750 mmHg 93%
    04:00 +5°C° 0.1 mm 4 mps 750 mmHg 92%
    05:00 +6°C° 0.1 mm 4 mps 750 mmHg 90%
    06:00 +6°C° 0 mm 4 mps 750 mmHg 89%
    07:00 +5°C° 0 mm 5 mps 751 mmHg 88%
    08:00 +5°C° 0 mm 5 mps 751 mmHg 87%
    09:00 +6°C° 0 mm 5 mps 751 mmHg 80%
    10:00 +7°C° 0 mm 6 mps 752 mmHg 72%
    11:00 +8°C° 0 mm 6 mps 752 mmHg 65%
    12:00 +9°C° 0.2 mm 6 mps 752 mmHg 61%
    13:00 +9°C° 0.2 mm 6 mps 752 mmHg 58%
    14:00 +10°C° 0.2 mm 6 mps 752 mmHg 54%
    15:00 +10°C° 0.1 mm 5 mps 752 mmHg 57%
    16:00 +9°C° 0.1 mm 5 mps 752 mmHg 59%
    17:00 +10°C° 0.1 mm 4 mps 752 mmHg 62%
    18:00 +7°C° 0 mm 4 mps 752 mmHg 67%
    19:00 +7°C° 0 mm 3 mps 753 mmHg 73%
    20:00 +4°C° 0 mm 3 mps 753 mmHg 78%
    21:00 +5°C° 0 mm 2 mps 754 mmHg 81%
    22:00 +4°C° 0 mm 2 mps 754 mmHg 83%
    23:00 +4°C° 0 mm 2 mps 754 mmHg 85%

    21 September, Saturday

    Time Temperature Precipitation Wind Pressure Humidity
    00:00 +4°C° 0 mm 2 mps 754 mmHg 86%
    01:00 +3°C° 0 mm 2 mps 754 mmHg 87%
    02:00 +3°C° 0 mm 2 mps 754 mmHg 87%
    03:00 +3°C° 0 mm 2 mps 754 mmHg 87%
    04:00 +3°C° 0 mm 2 mps 754 mmHg 86%
    05:00 +3°C° 0 mm 2 mps 754 mmHg 86%
    06:00 +4°C° 0 mm 2 mps 754 mmHg 81%
    07:00 +5°C° 0 mm 2 mps 754 mmHg 76%
    08:00 +5°C° 0 mm 3 mps 754 mmHg 71%
    09:00 +7°C° 0 mm 3 mps 754 mmHg 70%
    10:00 +7°C° 0 mm 4 mps 754 mmHg 70%
    11:00 +8°C° 0 mm 4 mps 753 mmHg 69%
    12:00 +8°C° 0.1 mm 4 mps 753 mmHg 75%
    13:00 +8°C° 0.1 mm 4 mps 753 mmHg 80%
    14:00 +8°C° 0.1 mm 4 mps 752 mmHg 85%
    15:00 +11°C° 0 mm 4 mps 752 mmHg 82%
    16:00 +12°C° 0 mm 4 mps 752 mmHg 80%
    17:00 +14°C° 0 mm 4 mps 752 mmHg 77%
    18:00 +14°C° 0 mm 4 mps 752 mmHg 78%
    19:00 +13°C° 0 mm 4 mps 752 mmHg 79%
    20:00 +13°C° 0 mm 4 mps 752 mmHg 79%
    21:00 +13°C° 0 mm 4 mps 751 mmHg 82%
    22:00 +12°C° 0 mm 4 mps 751 mmHg 85%
    23:00 +11°C° 0 mm 4 mps 751 mmHg 88%

    22 September, Sunday

    Time Temperature Precipitation Wind Pressure Humidity
    00:00 +11°C° 0 mm 4 mps 751 mmHg 90%
    01:00 +10°C° 0 mm 5 mps 751 mmHg 91%
    02:00 +9°C° 0 mm 5 mps 751 mmHg 92%
    03:00 +9°C° 0 mm 5 mps 751 mmHg 92%
    04:00 +9°C° 0 mm 5 mps 751 mmHg 92%
    05:00 +10°C° 0 mm 4 mps 751 mmHg 93%
    06:00 +10°C° 0 mm 4 mps 751 mmHg 90%
    07:00 +11°C° 0 mm 4 mps 751 mmHg 88%
    08:00 +11°C° 0 mm 4 mps 750 mmHg 85%
    09:00 +12°C° 0 mm 4 mps 751 mmHg 81%
    10:00 +13°C° 0 mm 4 mps 751 mmHg 78%
    11:00 +14°C° 0 mm 3 mps 751 mmHg 74%
    12:00 +16°C° 0 mm 3 mps 751 mmHg 69%
    13:00 +18°C° 0 mm 3 mps 751 mmHg 64%
    14:00 +19°C° 0 mm 3 mps 750 mmHg 60%
    15:00 +18°C° 0 mm 2 mps 750 mmHg 63%
    16:00 +18°C° 0 mm 2 mps 750 mmHg 66%
    17:00 +18°C° 0 mm 1 mps 750 mmHg 70%
    18:00 +16°C° 0 mm 1 mps 750 mmHg 73%
    19:00 +14°C° 0 mm 2 mps 750 mmHg 76%
    20:00 +13°C° 0 mm 2 mps 750 mmHg 80%
    21:00 +13°C° 0 mm 2 mps 750 mmHg 75%
    22:00 +11°C° 0 mm 3 mps 751 mmHg 70%
    23:00 +10°C° 0 mm 3 mps 751 mmHg 65%

    23 September, Monday

    Time Temperature Precipitation Wind Pressure Humidity
    00:00 +10°C° 0 mm 3 mps 751 mmHg 62%
    01:00 +10°C° 0 mm 3 mps 751 mmHg 60%
    02:00 +9°C° 0 mm 3 mps 751 mmHg 57%
    03:00 +9°C° 0 mm 3 mps 750 mmHg 58%
    04:00 +9°C° 0 mm 3 mps 750 mmHg 59%
    05:00 +8°C° 0 mm 3 mps 750 mmHg 60%
    06:00 +8°C° 0 mm 4 mps 749 mmHg 59%
    07:00 +8°C° 0 mm 4 mps 749 mmHg 58%
    08:00 +8°C° 0 mm 4 mps 749 mmHg 57%
    09:00 +10°C° 0 mm 4 mps 749 mmHg 56%
    10:00 +12°C° 0 mm 4 mps 749 mmHg 55%
    11:00 +13°C° 0 mm 4 mps 749 mmHg 55%
    12:00 +13°C° 0 mm 4 mps 748 mmHg 54%
    13:00 +14°C° 0 mm 4 mps 748 mmHg 54%
    14:00 +15°C° 0 mm 4 mps 747 mmHg 54%
    15:00 +14°C° 0 mm 4 mps 747 mmHg 56%
    16:00 +13°C° 0 mm 4 mps 747 mmHg 58%
    17:00 +13°C° 0 mm 3 mps 747 mmHg 60%
    18:00 +11°C° 0 mm 3 mps 747 mmHg 62%
    19:00 +10°C° 0 mm 3 mps 747 mmHg 65%
    20:00 +8°C° 0 mm 3 mps 747 mmHg 67%
    21:00 +8°C° 0 mm 3 mps 747 mmHg 66%
    22:00 +7°C° 0 mm 3 mps 747 mmHg 66%
    23:00 +7°C° 0 mm 3 mps 747 mmHg 66%
    Show more